Regional Weather Roundup
Issued by NWS Upton, NY

Current Version | Previous Version | Text Only | Print | Product List | Glossary Off
Versions: 1 2 3 4 5 6 7 8 9 10 11 12 13 14 15 16 17 18 19 20 21 22 23 24 25 26 27
000 ASUS41 KOKX 111208 RWROKX REGIONAL WEATHER ROUNDUP NATIONAL WEATHER SERVICE NEW YORK NY 700 AM EST SUN DEC 11 2016 NOTE: "FAIR" INDICATES FEW OR NO CLOUDS BELOW 12,000 FEET WITH NO SIGNIFICANT WEATHER AND/OR OBSTRUCTIONS TO VISIBILITY. NYZ071-072-176-178-NJZ106-104-111300- NEW YORK CITY METRO AREA CITY SKY/WX TMP DP RH WIND PRES REMARKS Central Park CLOUDY 29 15 56 CALM 30.54R Wall St Helipt CLOUDY 30 21 69 W6 30.55R WCI 24 Bronx Bot Gard NOT AVBL LaGuardia APRT MOCLDY 31 15 52 NW6 30.53R WCI 25 Kennedy INTL CLOUDY 29 14 53 N3 30.54R Breezy Point N/A N/A N/A N/A NW3 N/A Newark/Liberty CLOUDY 25 17 72 SW6 30.53S WCI 18 Teterboro PTCLDY 25 17 72 CALM 30.52S $$ NYZ177-179-078>081-111300- LONG ISLAND NEW YORK CITY SKY/WX TMP DP RH WIND PRES REMARKS Jones Beach N/A N/A N/A N/A N6 N/A Matinecock PT N/A 32 N/A N/A W6 N/A WCI 26 Farmingdale CLEAR 26 17 68 W5 30.53R WCI 20 MacArthur/ISP MOCLDY 23 19 85 W5 30.52R WCI 17 Shirley CLEAR 22 19 89 CALM 30.53R Westhampton NOT AVBL Southampton NOT AVBL Bridgehampton NOT AVBL East Hampton N/A 17 14 88 CALM 30.51R Montauk N/A 31 20 63 W3 30.52R $$ NYZ052-065-067-111300- HUDSON VALLEY CITY SKY/WX TMP DP RH WIND PRES REMARKS White Plains PTCLDY 25 16 68 W6 30.49R WCI 18 Newburgh PTCLDY 19 18 93 W6 30.50R WCI 11 Montgomery CLOUDY 20 15 81 CALM 30.49R Poughkeepsie CLOUDY 21 16 81 CALM 30.50R Albany PTCLDY 15 11 83 S3 30.48R $$ NJZ001-105-106-008-010-013-015-019>022-104-111300- NEW JERSEY CITY SKY/WX TMP DP RH WIND PRES REMARKS Newark/Liberty CLOUDY 25 17 72 SW6 30.53S WCI 18 Teterboro PTCLDY 25 17 72 CALM 30.52S Caldwell CLOUDY 25 17 72 CALM 30.53R Somerville PTCLDY 22 18 85 CALM 30.51S Linden N/A 26 17 66 CALM 30.55R Sussex CLOUDY 19 16 88 CALM 30.48R Andover N/A 21 18 88 CALM 30.49R Trenton CLOUDY 26 17 68 CALM 30.52R Millville CLOUDY 26 21 81 CALM 30.55R Atlantic City CLOUDY 27 16 63 CALM 30.55R Wrightstown CLOUDY 26 19 75 CALM 30.51R Toms River CLOUDY 24 20 84 CALM 30.55R Belmar CLOUDY 25 18 74 W5 30.55R WCI 19 $$ PAZ047>061-062-071-111300- EASTERN PENNSYLVANIA CITY SKY/WX TMP DP RH WIND PRES REMARKS Philadelphia CLOUDY 30 15 53 SW3 30.56R Allentown CLOUDY 25 17 72 SW5 30.51R WCI 19 Scranton MOCLDY 23 15 71 CALM 30.45R $$ CTZ002-004>006-009-010-012-RIZ004-006-007-MAZ004-011-015-111300- SOUTHERN NEW ENGLAND IN CT CITY SKY/WX TMP DP RH WIND PRES REMARKS Bradley INTL PTCLDY 11 6 81 CALM 30.51R Hartford CLEAR 15 13 91 CALM 30.53R Danbury CLOUDY 16 13 88 CALM 30.50R Wtrbury/Oxford PTCLDY 18 12 79 N7 30.48R WCI 8 Bridgeport MOCLDY 26 19 74 W3 30.53R Meriden CLOUDY 16 11 80 CALM 30.52R New Haven PTCLDY 17 14 88 CALM 30.53R Chester N/A 19 16 86 CALM 30.50R Groton CLEAR 20 12 71 N5 30.52R WCI 13 Wilimantic CLEAR 12 7 80 CALM 30.52R IN RI CITY SKY/WX TMP DP RH WIND PRES REMARKS Providence PTCLDY 15 11 83 CALM 30.52R Block Island CLEAR 28 18 66 NW6 30.51R WCI 22 Westerly CLEAR 15 10 80 N3 30.52R IN MA CITY SKY/WX TMP DP RH WIND PRES REMARKS Boston PTCLDY 21 11 65 N5 30.52R WCI 15 Worcester CLEAR 17 9 70 W8 30.43R WCI 7 Westfield CLEAR 8 6 92 CALM 30.50R Provincetown PTCLDY 27 17 66 NW7 30.50R WCI 19 Nantucket CLEAR 25 12 58 NW6 30.51R WCI 18 $$ ANZ330-335-338-340-345-350-353-355-111300- COASTAL MARINE OBSERVATIONS STATION/POSITION TIME SKY/WX TEMP WIND PRES VSBY WAVE AIR SEA DIR/SP/G HT/PER (UTC) (F) (DEG/KT/KT) (MB) (MI) (FT/S) NY HARB ENTRANCE 1050 33 51 330/ 8/ 14 1033.4 1/ 3 20 S FIRE ISLAND 1050 33 51 320/ 10/ 14 1032.9 2/ 4 GREAT SOUTH BAY 1115 29 37 N/A 23 SSW MONTAUK P 1050 34 54 290/ 10/ 14 1032.6 2/ 4 15 E BARNEGAT LI 1130 50 N/A 2/ 4 HUDSON CANYON 1050 38 55 1032.3 3/ 5 KINGS POINT 1142 30 44 1033.5 EXECUTION ROCKS 1145 29 280/ 6/ 10 N/A CENTRAL LI SOUND 1130 31 48 310/ 10/ 14 N/A 1/ 4 EASTERN LI SOUND NOT AVBL ROBBINS REEF 1142 29 270/ 7/ 8 1034.0 $$ >>>>>>>>>>>>>>>>>>>>>>>>>>>> KEY <<<<<<<<<<<<<<<<<<<<<<<<<<< > < > SKY/WX - Sky Condition/Present Weather < > TMP - Temperature in Fahrenheit < > DP - Dew Point in Fahrenheit < > RH - Relative Humidity in Percent < > WIND - Direction (from) and Speed in MPH < > PRES - Mean Sea Level Pressure (inches of Hg) < > WCI - Wind Chill Index < > VSB - VISIBILITY IN MILES < > HX - HEAT INDEX < > TC - TEMPERATURE IN CELSIUS < > VRB - VARIABLE WIND DIRECTION < > < >>>>>>>>>>>>>>>>>>>>>>>>>>>> KEY <<<<<<<<<<<<<<<<<<<<<<<<<<<

USA.gov is the U.S. government's official web portal to all federal, state and local government web resources and services.